Wind_Speed
12 12 11 10 9 8 8 8 7 7 6 6 6 7 7 7 7 7 8 9 9 10 10 10 11 11 11 12 12 12 12 13 13 14 13 13 13 13 14 14 14 15 16
12 12 11 11 10 9 9 8 8 7 7 7 7 7 7 7 8 8 9 10 10 10 11 11 12 12 13 13 13 13 14 14 15 15 16 15 15 14 14 15 16 16 17
13 13 12 11 10 10 9 9 8 8 8 8 8 8 8 8 8 9 10 11 11 12 12 13 13 14 14 14 14 15 15 15 16 16 16 16 16 16 16 16 17 17 18
14 13 12 11 11 10 10 9 9 9 9 9 8 9 9 9 10 10 11 12 12 13 13 14 14 15 15 16 16 16 16 17 17 17 17 17 17 17 17 17 18 18 19
15 14 13 12 12 11 10 10 9 9 9 9 10 10 10 10 11 12 12 13 14 14 14 15 16 16 17 17 17 18 18 18 18 18 18 18 18 18 18 19 19 19 19
16 15 15 14 13 12 11 11 11 11 11 11 11 11 11 12 12 13 14 14 15 15 16 17 17 17 18 19 19 19 19 19 19 19 19 19 19 20 20 20 20 21 21
15 15 15 15 15 14 13 13 12 12 12 12 12 13 13 13 14 15 15 16 16 17 18 18 19 19 20 20 20 21 21 21 20 20 20 20 20 20 21 22 22 22 23
16 17 17 16 16 16 15 14 14 14 14 14 14 14 15 15 15 16 17 17 18 19 19 20 20 21 21 21 22 21 21 22 22 21 21 21 21 21 21 22 23 23 24
16 17 17 17 17 16 16 16 16 16 16 16 16 16 16 17 17 18 18 19 19 20 21 21 22 22 23 23 23 23 23 23 23 22 23 23 23 23 24 24 24 25 26
18 18 18 18 18 18 18 17 17 17 17 17 17 17 18 18 19 19 20 20 20 21 21 22 23 24 24 25 25 24 24 24 23 23 23 24 24 24 24 25 26 26 27
19 19 19 19 19 19 19 19 19 19 19 19 19 19 19 20 20 21 21 22 22 23 23 24 24 25 25 26 26 26 26 25 25 25 25 26 26 26 27 27 28 29 30
20 20 20 21 21 21 21 21 21 21 20 21 21 21 21 21 22 22 23 24 25 25 26 26 26 27 27 27 27 27 27 27 27 27 28 28 28 29 29 30 31 31 32
21 22 22 22 22 22 22 22 23 22 22 22 23 23 23 23 23 24 25 25 26 27 27 28 28 28 29 29 29 28 28 28 29 29 30 30 31 31 31 32 33 33 34
22 22 22 23 23 24 24 24 24 23 24 24 24 24 24 25 25 26 26 26 27 28 28 29 29 30 30 30 30 30 30 30 31 31 32 32 33 33 34 34 34 35 36
23 23 23 24 24 25 25 25 25 25 25 26 26 26 26 26 26 27 27 28 28 29 30 30 31 30 31 31 31 31 32 32 33 33 33 34 34 35 35 36 36 37 38
24 24 25 25 26 26 27 27 27 27 28 28 28 28 28 28 28 28 29 29 30 31 32 32 32 32 32 32 33 33 34 34 34 34 35 35 36 36 37 37 38 39 40
25 26 26 26 27 27 28 28 29 29 30 30 29 29 30 30 30 30 31 32 32 33 33 33 33 33 34 35 35 35 35 36 36 37 37 38 38 38 39 39 40 40 41
27 28 27 28 28 29 29 30 30 30 30 30 30 30 31 31 32 32 33 34 34 34 35 35 35 36 36 37 37 37 37 38 38 39 39 40 40 41 41 41 42 42 43
28 28 28 29 29 30 30 30 31 31 31 31 31 31 32 32 33 34 34 35 35 36 36 37 37 37 38 38 38 39 39 40 40 41 41 41 42 42 42 43 43 44 45
29 29 29 29 30 30 31 32 32 32 32 32 33 33 33 34 34 35 36 36 37 37 37 38 38 38 39 39 40 40 41 41 41 42 42 42 43 43 44 44 44 45 46
30 30 30 31 31 31 31 32 32 33 33 33 34 35 35 36 36 36 37 37 38 38 38 39 39 39 40 40 41 41 41 42 42 42 42 43 43 44 45 45 46 47 48
32 32 32 32 33 33 33 34 34 35 35 35 36 36 36 37 37 37 38 38 38 38 39 39 40 40 41 41 41 42 42 42 42 42 43 44 44 45 45 46 47 48 49
33 33 34 34 35 35 35 35 36 36 36 36 37 37 37 37 38 38 39 39 39 40 40 41 41 41 42 42 42 42 43 43 43 43 44 44 45 45 46 47 48 49 49
34 35 36 36 36 35 36 36 36 36 37 37 37 37 37 38 39 39 40 40 40 41 41 41 41 41 41 42 42 43 43 43 44 44 45 45 45 46 47 47 48 48 48
35 36 36 36 36 36 36 36 36 36 37 37 37 38 38 39 39 40 40 41 42 42 42 42 42 42 42 43 43 44 43 44 44 45 46 46 46 46 47 47 48 48 48
36 37 37 37 37 37 37 37 37 37 38 38 38 39 40 40 41 41 41 42 42 42 42 42 43 44 44 44 45 45 45 45 46 47 47 46 46 46 47 47 47 47 47
Wind_Direction
234 237 240 241 248 255 260 266 273 275 275 280 287 296 303 309 314 317 321 325 326 326 327 327 327 327 328 326 323 318 313 309 307 304 303 297 294 291 289 284 281 278 275
235 238 240 244 249 255 259 263 267 269 273 279 284 292 297 302 308 312 316 318 320 323 324 325 325 323 324 322 321 318 315 311 308 305 304 300 295 291 288 284 282 281 279
236 239 243 246 249 253 258 261 265 266 272 279 284 288 293 298 304 308 312 314 315 317 318 319 320 320 320 320 319 317 315 311 309 306 304 302 297 291 289 287 284 283 283
237 240 244 248 251 254 258 261 264 268 273 277 281 286 290 296 300 303 307 309 311 313 314 316 316 317 317 318 317 316 314 311 309 306 303 302 300 295 290 288 286 286 287
239 241 245 250 252 254 257 259 262 269 274 277 277 281 287 292 297 299 303 305 307 309 311 314 315 315 314 314 314 314 312 310 308 305 303 303 300 298 293 290 289 288 289
241 242 245 249 253 256 259 262 264 269 274 278 279 282 286 291 295 298 300 302 304 306 308 310 311 312 313 313 312 311 310 309 308 305 303 301 299 297 295 291 291 289 288
246 246 248 251 254 258 262 265 268 270 273 275 279 281 284 288 292 295 297 298 300 303 304 306 308 310 312 313 312 310 309 308 306 305 302 301 300 297 295 293 292 291 289
250 249 250 251 254 258 261 266 269 272 273 274 277 280 284 287 290 293 296 297 299 301 303 304 306 308 310 311 311 310 309 307 305 303 301 300 298 297 295 293 292 292 291
250 250 251 252 253 257 261 264 268 271 273 275 276 279 282 285 288 292 294 296 298 300 301 302 304 306 306 307 307 307 307 306 304 302 301 300 298 296 296 295 294 293 293
251 252 253 255 256 258 262 265 269 271 273 276 277 278 282 285 289 291 293 295 297 299 300 301 302 303 304 305 305 305 305 304 304 303 301 300 299 298 296 295 295 295 295
251 253 255 257 258 260 263 267 270 271 273 276 278 279 282 285 288 290 292 294 296 297 297 299 300 301 302 303 303 303 303 303 302 302 302 301 300 299 298 297 296 296 296
252 254 257 259 261 263 265 268 270 271 273 276 277 279 282 284 287 289 291 292 294 294 295 296 297 298 300 302 302 301 301 301 301 301 301 301 301 300 300 300 299 297 297
255 256 258 261 262 264 267 270 272 272 274 276 278 280 283 285 287 289 291 292 293 293 293 295 296 297 299 300 300 300 300 300 300 300 300 300 301 301 300 300 301 299 298
256 258 260 263 264 265 268 271 272 273 275 277 277 279 282 284 287 288 290 292 292 293 293 294 295 296 297 298 298 298 298 299 299 299 299 300 301 300 299 299 299 298 298
257 258 261 263 266 266 269 271 274 275 276 279 279 280 282 284 287 288 290 291 292 293 293 294 295 296 297 298 298 298 298 298 299 298 299 299 300 299 299 299 299 298 298
258 260 262 264 266 268 269 271 274 277 279 279 280 281 281 283 285 287 289 290 291 293 293 294 295 295 296 297 298 298 298 299 298 298 299 300 300 300 300 299 299 299 299
258 259 261 263 266 269 270 272 274 276 279 280 280 281 282 282 283 285 288 290 292 293 294 294 294 295 295 297 297 298 298 298 298 298 299 299 300 300 300 300 300 300 299
259 260 262 265 267 269 271 273 275 278 280 280 281 283 283 282 283 286 288 290 291 293 294 294 295 295 295 296 296 296 297 296 296 296 297 298 298 299 299 299 299 300 300
261 262 264 267 269 271 272 274 277 279 281 282 283 284 285 285 284 286 288 290 291 293 294 295 295 296 296 296 296 296 296 296 295 295 295 296 297 298 298 299 299 300 300
264 265 267 269 271 273 275 276 278 280 282 283 284 285 287 288 289 289 289 291 292 293 294 295 295 295 296 296 296 296 296 296 295 295 294 295 296 297 297 298 299 299 300
265 266 268 270 272 274 276 277 279 281 282 284 286 287 288 289 290 290 291 291 292 292 293 294 294 295 296 296 296 296 296 297 297 297 296 296 297 297 297 298 298 299 300
265 266 268 270 272 274 275 277 279 282 283 285 286 286 288 289 290 290 291 291 292 292 292 293 294 295 296 295 295 296 296 296 296 296 297 297 298 297 298 298 299 300 300
267 268 269 271 272 274 275 277 279 282 284 285 285 285 287 288 289 290 291 290 291 292 293 294 295 295 295 294 295 295 295 295 295 296 296 297 298 298 298 299 299 300 300
268 270 272 272 273 274 277 278 279 281 283 284 285 286 287 288 289 290 291 291 292 293 294 294 294 295 295 295 295 296 296 296 296 296 296 296 297 297 298 299 300 301 300
271 273 273 274 274 275 276 278 280 281 282 283 284 286 287 288 289 290 291 291 292 293 293 293 293 294 295 296 297 296 296 296 297 297 297 296 296 297 298 298 299 300 301
271 272 273 274 274 275 276 277 279 281 282 283 284 285 287 288 290 290 290 291 292 292 292 293 293 294 295 296 297 296 295 296 296 296 296 296 297 297 298 299 299 300 300
Height
5884 5885 5885 5886 5886 5887 5887 5887 5886 5886 5885 5885 5884 5883 5882 5881 5880 5879 5877 5875 5874 5872 5870 5868 5866 5863 5861 5859 5857 5854 5852 5850 5848 5846 5844 5842 5841 5839 5837 5836 5835 5834 5834
5882 5882 5883 5884 5884 5884 5885 5884 5884 5884 5883 5883 5882 5881 5880 5879 5878 5877 5875 5874 5872 5870 5868 5866 5864 5862 5860 5857 5855 5852 5850 5848 5845 5843 5841 5839 5837 5835 5834 5832 5831 5830 5829
5879 5880 5881 5881 5882 5882 5882 5882 5882 5882 5881 5880 5880 5879 5878 5877 5876 5875 5873 5872 5870 5868 5866 5864 5862 5860 5857 5855 5852 5850 5847 5845 5842 5840 5837 5835 5833 5831 5829 5828 5827 5826 5825
5877 5877 5878 5879 5879 5880 5880 5880 5879 5879 5879 5878 5877 5877 5876 5875 5874 5872 5871 5870 5868 5866 5864 5861 5859 5857 5854 5852 5849 5846 5844 5841 5838 5836 5834 5831 5829 5827 5825 5824 5822 5821 5820
5874 5874 5875 5876 5876 5877 5877 5877 5877 5876 5876 5875 5875 5874 5873 5872 5871 5870 5868 5867 5865 5863 5861 5859 5856 5854 5851 5849 5846 5843 5840 5837 5835 5832 5829 5827 5825 5823 5821 5819 5818 5816 5815
5870 5871 5872 5873 5873 5874 5874 5874 5873 5873 5873 5872 5872 5871 5870 5869 5868 5867 5865 5864 5862 5860 5858 5855 5853 5850 5848 5845 5842 5839 5836 5833 5830 5827 5825 5823 5820 5818 5816 5815 5813 5812 5810
5867 5868 5868 5869 5870 5870 5870 5870 5870 5870 5869 5869 5868 5868 5867 5866 5864 5863 5862 5860 5858 5856 5854 5851 5849 5846 5843 5840 5837 5834 5831 5828 5826 5823 5820 5818 5816 5813 5811 5810 5808 5806 5805
5863 5864 5864 5865 5865 5866 5866 5866 5866 5866 5866 5865 5865 5864 5863 5862 5860 5859 5857 5856 5854 5851 5849 5847 5844 5841 5838 5835 5832 5829 5826 5823 5820 5817 5815 5813 5810 5808 5806 5804 5802 5800 5799
5858 5859 5860 5861 5861 5862 5862 5862 5862 5862 5861 5861 5860 5859 5858 5857 5856 5854 5853 5851 5849 5847 5844 5841 5839 5836 5833 5830 5827 5824 5821 5818 5815 5812 5809 5807 5804 5802 5800 5798 5796 5794 5792
5854 5855 5855 5856 5856 5857 5857 5857 5857 5857 5857 5856 5855 5854 5854 5852 5851 5849 5847 5846 5843 5841 5839 5836 5833 5830 5827 5824 5821 5818 5815 5812 5809 5806 5803 5801 5798 5796 5793 5791 5789 5787 5784
5849 5850 5851 5851 5851 5852 5852 5852 5852 5852 5851 5851 5850 5849 5848 5847 5845 5844 5842 5840 5837 5835 5832 5830 5827 5824 5821 5818 5814 5811 5808 5805 5802 5800 5797 5794 5791 5789 5786 5783 5781 5778 5776
5843 5844 5845 5846 5846 5846 5847 5847 5847 5846 5846 5845 5844 5843 5842 5841 5839 5837 5836 5833 5831 5828 5826 5823 5820 5817 5814 5811 5808 5805 5802 5799 5796 5793 5790 5787 5784 5781 5778 5775 5772 5769 5767
5837 5838 5839 5840 5840 5841 5841 5841 5840 5840 5839 5839 5838 5837 5836 5834 5833 5831 5829 5826 5824 5821 5819 5816 5813 5810 5807 5804 5801 5797 5794 5791 5788 5785 5782 5779 5776 5773 5769 5766 5763 5760 5757
5831 5832 5833 5834 5834 5834 5834 5834 5834 5833 5833 5832 5831 5830 5829 5827 5826 5823 5821 5819 5816 5814 5811 5808 5805 5802 5799 5796 5793 5789 5786 5783 5780 5777 5774 5770 5767 5764 5760 5757 5754 5750 5747
5825 5826 5827 5827 5827 5828 5828 5827 5827 5826 5825 5825 5824 5822 5821 5820 5818 5816 5813 5811 5809 5806 5803 5800 5797 5794 5791 5787 5784 5781 5778 5774 5771 5768 5765 5761 5758 5754 5751 5747 5743 5740 5736
5819 5819 5820 5820 5820 5820 5820 5820 5819 5819 5818 5817 5815 5814 5813 5811 5809 5807 5805 5803 5800 5797 5794 5791 5788 5785 5782 5779 5775 5772 5768 5765 5762 5758 5755 5751 5748 5744 5740 5736 5732 5728 5724
5811 5812 5812 5813 5813 5813 5812 5812 5812 5811 5809 5808 5807 5805 5804 5802 5800 5798 5796 5793 5790 5787 5784 5782 5779 5776 5772 5769 5765 5762 5759 5755 5752 5748 5744 5741 5737 5733 5729 5725 5721 5717 5713
5803 5804 5804 5805 5804 5804 5804 5804 5803 5802 5801 5800 5798 5796 5794 5792 5791 5788 5786 5783 5781 5778 5775 5772 5769 5765 5762 5759 5755 5752 5748 5744 5741 5737 5734 5730 5726 5722 5718 5713 5709 5705 5701
5795 5795 5796 5796 5796 5796 5795 5795 5794 5793 5792 5790 5789 5787 5785 5782 5780 5778 5776 5773 5770 5767 5764 5761 5758 5754 5751 5747 5744 5740 5737 5733 5729 5726 5722 5718 5714 5710 5706 5702 5697 5693 5688
5787 5787 5787 5787 5787 5787 5786 5786 5785 5784 5782 5781 5779 5777 5775 5772 5770 5768 5765 5762 5759 5756 5753 5750 5746 5743 5739 5736 5732 5728 5724 5721 5717 5713 5710 5706 5702 5698 5694 5689 5685 5680 5675
5778 5778 5778 5778 5778 5777 5776 5776 5775 5774 5772 5770 5769 5766 5764 5762 5759 5757 5754 5751 5748 5745 5742 5738 5735 5731 5727 5723 5719 5716 5712 5708 5704 5701 5697 5694 5690 5685 5681 5676 5672 5667 5662
5768 5768 5768 5768 5768 5767 5766 5765 5764 5763 5761 5760 5758 5755 5753 5750 5748 5746 5743 5740 5736 5733 5730 5726 5723 5719 5715 5711 5707 5703 5699 5696 5692 5689 5685 5681 5677 5672 5668 5663 5659 5653 5648
5757 5757 5757 5757 5757 5756 5755 5754 5753 5752 5750 5748 5746 5744 5742 5739 5736 5734 5731 5728 5724 5721 5718 5714 5711 5707 5703 5699 5695 5691 5687 5683 5680 5675 5672 5668 5663 5659 5655 5650 5645 5640 5635
5747 5746 5746 5746 5745 5745 5744 5743 5742 5740 5738 5737 5734 5732 5730 5727 5725 5722 5719 5715 5712 5709 5706 5702 5698 5695 5691 5687 5683 5678 5674 5670 5666 5662 5659 5655 5650 5646 5641 5637 5632 5626 5621
5735 5735 5735 5734 5734 5733 5732 5731 5730 5728 5727 5725 5723 5720 5718 5715 5713 5709 5706 5703 5700 5697 5693 5690 5686 5683 5679 5674 5670 5666 5662 5658 5653 5649 5645 5641 5637 5632 5628 5623 5618 5613 5607
5724 5723 5723 5722 5722 5721 5720 5719 5718 5716 5715 5713 5710 5708 5706 5703 5700 5697 5694 5691 5688 5684 5681 5678 5674 5670 5666 5662 5658 5654 5649 5645 5641 5636 5632 5628 5623 5619 5614 5609 5604 5599 5594